TimeGMT,TemperatureF,Dew PointF,Humidity,Sea Level PressureIn,VisibilityMPH,Wind Direction,Wind SpeedMPH,Gust SpeedMPH,PrecipitationIn,Events,Conditions,WindDirDegrees,DateUTC
12:00 AM,44,42,88,28.89,12,South,6.7,,,,Partly Cloudy,190,2012-12-15 00:00:00
12:00 AM,44.6,41.0,87,28.88,6.2,South,6.9,-,N/A,,Scattered Clouds,190,2012-12-15 00:00:00
12:30 AM,44.6,41.0,87,28.88,6.2,South,6.9,-,N/A,,Scattered Clouds,180,2012-12-15 00:30:00
1:00 AM,42.8,41.0,93,28.88,6.2,South,9.2,-,N/A,,Scattered Clouds,190,2012-12-15 01:00:00
1:30 AM,42.8,41.0,93,28.88,6.2,South,6.9,-,N/A,,Partly Cloudy,180,2012-12-15 01:30:00
2:00 AM,44.6,42.8,93,28.88,6.2,South,10.4,-,N/A,Rain,Rain Showers,190,2012-12-15 02:00:00
2:30 AM,44.6,42.8,93,28.88,6.2,SSW,10.4,-,N/A,,Scattered Clouds,200,2012-12-15 02:30:00
3:00 AM,44.6,42.8,93,28.91,6.2,SSW,11.5,-,N/A,,Scattered Clouds,200,2012-12-15 03:00:00
3:30 AM,44.6,42.8,93,28.91,6.2,SSW,9.2,-,N/A,,Scattered Clouds,200,2012-12-15 03:30:00
4:00 AM,44.6,42.8,93,28.91,6.2,SSW,8.1,-,N/A,Rain,Rain Showers,200,2012-12-15 04:00:00
4:30 AM,44.6,42.8,93,28.91,6.2,SSW,8.1,-,N/A,,Scattered Clouds,200,2012-12-15 04:30:00
5:00 AM,46.4,44.6,93,28.94,6.2,SSW,11.5,-,N/A,,Scattered Clouds,210,2012-12-15 05:00:00
5:30 AM,46.4,44.6,93,28.94,6.2,SSW,12.7,-,N/A,Rain,Rain Showers,210,2012-12-15 05:30:00
6:00 AM,45,44,94,28.96,10,SW,11.2,,,Rain,Light Rain Showers,220,2012-12-15 06:00:00
6:00 AM,44.6,44.6,100,28.94,6.2,SW,10.4,-,N/A,,Mostly Cloudy,220,2012-12-15 06:00:00
6:30 AM,44.6,42.8,93,28.94,6.2,SW,16.1,-,N/A,,Scattered Clouds,230,2012-12-15 06:30:00
7:00 AM,46.4,42.8,87,28.97,6.2,SW,11.5,-,N/A,,Mostly Cloudy,230,2012-12-15 07:00:00
7:30 AM,44.6,42.8,93,28.97,6.2,SW,11.5,-,N/A,,Mostly Cloudy,220,2012-12-15 07:30:00
8:00 AM,44.6,42.8,93,29.00,6.2,SW,10.4,-,N/A,Rain,Light Rain Showers,220,2012-12-15 08:00:00
8:30 AM,44.6,42.8,93,29.00,6.2,SW,12.7,-,N/A,Rain,Light Rain Showers,230,2012-12-15 08:30:00
9:00 AM,44.6,42.8,93,29.00,6.2,SSW,11.5,-,N/A,,Mostly Cloudy,210,2012-12-15 09:00:00
9:30 AM,44.6,42.8,93,29.03,6.2,SSW,10.4,-,N/A,,Scattered Clouds,210,2012-12-15 09:30:00
10:00 AM,44.6,42.8,93,29.06,6.2,South,9.2,-,N/A,,Mostly Cloudy,190,2012-12-15 10:00:00
10:30 AM,46.4,42.8,87,29.06,6.2,South,8.1,-,N/A,,Partly Cloudy,190,2012-12-15 10:30:00
11:00 AM,46.4,42.8,87,29.09,6.2,SW,19.6,-,N/A,Rain,Light Rain Showers,230,2012-12-15 11:00:00
11:30 AM,44.6,42.8,93,29.09,6.2,SW,13.8,-,N/A,Rain,Light Rain Showers,230,2012-12-15 11:30:00
12:00 PM,47,43,82,29.10,12,SW,11.2,,,Rain,Light Rain Showers,230,2012-12-15 12:00:00
12:00 PM,46.4,42.8,87,29.09,6.2,SW,11.5,-,N/A,,Scattered Clouds,230,2012-12-15 12:00:00
12:30 PM,46.4,42.8,87,29.09,6.2,SSW,9.2,-,N/A,,Partly Cloudy,200,2012-12-15 12:30:00
1:00 PM,48.2,44.6,87,29.09,6.2,South,6.9,-,N/A,,Partly Cloudy,190,2012-12-15 13:00:00
1:30 PM,46.4,42.8,87,29.09,6.2,SSW,15.0,-,N/A,,Scattered Clouds,210,2012-12-15 13:30:00
2:00 PM,48.2,41.0,76,29.09,6.2,SSW,10.4,-,N/A,,Mostly Cloudy,200,2012-12-15 14:00:00
2:30 PM,48.2,42.8,82,29.09,6.2,SSW,12.7,-,N/A,,Scattered Clouds,210,2012-12-15 14:30:00
3:00 PM,46.4,42.8,87,29.12,6.2,South,8.1,-,N/A,,Scattered Clouds,180,2012-12-15 15:00:00
3:30 PM,46.4,41.0,81,29.12,6.2,South,12.7,-,N/A,,Partly Cloudy,180,2012-12-15 15:30:00
4:00 PM,46.4,41.0,81,29.12,6.2,South,10.4,-,N/A,,Scattered Clouds,180,2012-12-15 16:00:00
4:30 PM,46.4,41.0,81,29.15,6.2,South,8.1,-,N/A,,Scattered Clouds,190,2012-12-15 16:30:00
5:00 PM,46.4,41.0,81,29.15,6.2,South,9.2,-,N/A,,Mostly Cloudy,190,2012-12-15 17:00:00
5:30 PM,44.6,41.0,87,29.15,6.2,South,10.4,-,N/A,,Mostly Cloudy,190,2012-12-15 17:30:00
6:00 PM,45,41,80,29.18,12,South,11.2,,,,Partly Cloudy,190,2012-12-15 18:00:00
6:00 PM,44.6,41.0,87,29.18,6.2,South,11.5,-,N/A,,Scattered Clouds,190,2012-12-15 18:00:00
6:30 PM,44.6,41.0,87,29.18,6.2,South,9.2,-,N/A,,Mostly Cloudy,190,2012-12-15 18:30:00
7:00 PM,44.6,41.0,87,29.18,6.2,South,9.2,-,N/A,,Scattered Clouds,190,2012-12-15 19:00:00
7:30 PM,44.6,42.8,93,29.18,6.2,SSW,13.8,-,N/A,Rain,Light Rain Showers,210,2012-12-15 19:30:00
8:00 PM,44.6,41.0,87,29.21,6.2,South,9.2,-,N/A,,Scattered Clouds,180,2012-12-15 20:00:00
8:30 PM,44.6,41.0,87,29.21,6.2,South,9.2,-,N/A,,Scattered Clouds,190,2012-12-15 20:30:00
9:00 PM,44.6,41.0,87,29.21,6.2,SSW,10.4,-,N/A,,Scattered Clouds,200,2012-12-15 21:00:00
9:30 PM,44.6,41.0,87,29.21,6.2,South,8.1,-,N/A,,Mostly Cloudy,190,2012-12-15 21:30:00
10:00 PM,44.6,41.0,87,29.24,6.2,SSW,12.7,-,N/A,Rain,Light Rain Showers,200,2012-12-15 22:00:00
10:30 PM,44.6,41.0,87,29.24,6.2,SSW,10.4,-,N/A,,Scattered Clouds,200,2012-12-15 22:30:00
11:00 PM,44.6,41.0,87,29.24,6.2,South,8.1,-,N/A,,Scattered Clouds,190,2012-12-15 23:00:00
11:30 PM,44.6,41.0,87,29.24,6.2,South,8.1,-,N/A,,Scattered Clouds,190,2012-12-15 23:30:00